This is the latest recevied weather packets stored in our database for station/object N5TDX. If no packets are shown the sender has not sent any weather packets the latest 10 day(s).
| Time | Temp. | Humidity | Pressure | Rain* | Wind** | Luminosity | Snow |
|---|---|---|---|---|---|---|---|
| 1788444691 | 26.67° C | 76% | 1010.7 hPa | 0 mm | - | - | - |
| 1788444387 | 27.22° C | 75% | 1010.7 hPa | 0 mm | - | - | - |
| 1788444092 | 27.22° C | 74% | 1010.8 hPa | 0 mm | - | - | - |
| 1788443779 | 27.22° C | 74% | 1011 hPa | 0 mm | - | - | - |
| 1788443478 | 27.22° C | 74% | 1010.7 hPa | 0 mm | - | - | - |
| 1788443177 | 26.67° C | 75% | 1010.7 hPa | 0 mm | - | - | - |
| 1788442873 | 26.11° C | 77% | 1010.8 hPa | 0 mm | - | - | - |
| 1788442576 | 26.11° C | 77% | 1010.7 hPa | 0 mm | - | - | - |
| 1788442267 | 26.11° C | 78% | 1010.5 hPa | 0 mm | - | - | - |
| 1788441962 | 25.56° C | 79% | 1010.6 hPa | 0 mm | - | - | - |
| 1788441662 | 25.56° C | 79% | 1010.8 hPa | 0 mm | - | - | - |
| 1788441356 | 25.56° C | 79% | 1010.7 hPa | 0 mm | - | - | - |
| 1788441057 | 25° C | 80% | 1010.6 hPa | 0 mm | - | - | - |
| 1788440755 | 25° C | 80% | 1010.8 hPa | 0 mm | - | - | - |
| 1788440451 | 25° C | 80% | 1010.5 hPa | 0 mm | - | - | - |
| 1788440149 | 25° C | 80% | 1010.7 hPa | 0 mm | - | - | - |
| 1788439844 | 25° C | 80% | 1010.7 hPa | 0 mm | - | - | - |
| 1788439539 | 25° C | 80% | 1010.7 hPa | 0 mm | - | - | - |
| 1788439238 | 25° C | 80% | 1010.8 hPa | 0 mm | - | - | - |
| 1788438938 | 25° C | 80% | 1010.3 hPa | 0 mm | - | - | - |
| 1788438637 | 25° C | 80% | 1010.3 hPa | 0 mm | - | - | - |
| 1788438337 | 25° C | 80% | 1010.5 hPa | 0 mm | - | - | - |
| 1788438036 | 25° C | 80% | 1010.3 hPa | 0 mm | - | - | - |
| 1788437731 | 25° C | 80% | 1010.3 hPa | 0 mm | - | - | - |
| 1788437427 | 25° C | 80% | 1010.5 hPa | 0 mm | - | - | - |
* Rain latest hour (hover to see other rain measurements)
** Current wind speed in m/s (hover to see current wind gust speed)